Location: Newark
(50.0336°N, 22.0047°E)
Time: 13:40:29
(UTC+00:00)

Envisat - Pass Details

Date: 02 February 2020
Orbit: 764 x 766 km, 98.1° (Epoch: 24 February)

Event Time Altitude Azimuth Distance (km) Brightness Sun altitude
Rises 17:32:09 0° 208° (SSW) 3,222 6.6 -20.2°
Reaches altitude 10° 17:35:06 10° 225° (SW) 2,302 6.1 -20.7°
Maximum altitude 17:38:41 19° 271° (W) 1,755 5.8 -21.3°
Drops below altitude 10° 17:42:18 10° 316° (NW) 2,313 6.0 -21.8°
Sets 17:45:17 0° 334° (NNW) 3,245 6.6 -22.3°
